California State Race - loft fly

Station: Inventory - T Race

Distance: 1 Miles    

Release: 04-Jul-2019 06:00

Weather Release:    Arrival:

Wind at Release:     Wind at Arrival:

Temp at Release: °    Temp at Arrival: °

Lofts: 100

Birds: 266

Clocked: 258

Good Luck to Everyone!
Drops Pos Breeder Pigeon Name Color Sex Ent Arrival Speed To Win Eligible
1 Pat Siino - CA 9248-AU19-COOK BC C 1 09:06:20.60 9.445 00:00:00 Yes
1 Brady Harper - CA 22533-AU19-ARPU BB H 1 09:06:20.70 9.445 00:00:00 Yes
1 Master One - CA 9228-AU19-COOK BB H 1 09:06:20.80 9.445 00:00:00 Yes
1 Hayloft - CA 9255-AU19-GSF BC H 1 09:06:20.90 9.445 00:00:00 Yes
5 Barbara Shulman - CA 2557-AU19-WSJ DC H 1 09:06:21.90 9.444 00:00:01 Yes
6 Steve Sterchi - CA 0990-AU19-SR BB H 1 09:06:23.90 9.442 00:00:04 Yes
7 Padilla - CA 1686-AU19-MTZ BB H 1 09:06:29.70 9.437 00:00:09 Yes
8 Joe Jauhal - CA 0140-AU19-WSJ DC C 1 09:07:01.80 9.410 00:00:42 Yes
9 Robert Lin - CA 19084-AU19-SVS DCPD H 1 09:07:04.10 9.408 00:00:44 Yes
10 Dan Severns - CA 80740-AU19-MAN BBPD C 1 09:07:05.60 9.407 00:00:45 Yes
11 John Partridge - CA 1648-AU19-PASO BC H 1 09:08:38.70 9.330 00:02:18 Yes
12 Partridge Family Loft - CA 1741-AU19-PASO BC H 1 09:08:46.00 9.324 00:02:25 Yes
13 Stanton Woody - CA 80509-AU19-MAN BC H 1 09:08:50.20 9.320 00:02:30 Yes
13 Silicon Valley Syndicates - CA 19079-AU19-SVS BBWF H 1 09:08:50.50 9.320 00:02:30 Yes
15 Al Shulman - CA 2554-AU19-WSJ BCPD C 1 09:09:02.10 9.310 00:02:42 Yes
16 Hayloft - CA 9262-AU19-GSF RC C 2 09:09:03.40 9.309 00:02:43 Yes
16 Silicon Valley Syndicates - CA 19075-AU19-SVS BB C 2 09:09:04.00 9.309 00:02:43 Yes
16 Hayloft - CA 9293-AU19-GSF BCPD H 3 09:09:04.40 9.309 00:02:43 Yes
19 Prout's Loft - CA 12577-AU19-ARPU BB H 1 09:09:14.60 9.300 00:02:54 Yes
20 John Partridge - CA 1642-AU19-PASO BB C 2 09:10:06.50 9.258 00:03:46 Yes
21 Barbara Shulman - CA 2555-AU19-WSJ BB C 2 09:10:08.40 9.256 00:03:48 Yes
21 Gary Longfellow - CA 3480-AU19-ARC BB H 1 09:10:09.00 9.256 00:03:48 Yes
21 Barbara Shulman - CA 2552-AU19-WSJ BC H 3 09:10:09.30 9.256 00:03:48 Yes
24 Jenkins Racing - CA 0760-AU19-JENK BC C 1 09:10:09.90 9.255 00:03:50 Yes
25 Jim Looper - CA 1037-AU19-LOOP MLY H 1 09:10:13.30 9.252 00:03:53 Yes
25 Gary Robins - CA 0119-AU19-OCF BB C 1 09:10:13.60 9.252 00:03:53 Yes
27 Carl Cardarelli - CA 0201-AU19-ANCO BCWF C 1 09:10:24.40 9.243 00:04:04 Yes
28 Prout's Loft - CA 12579-AU19-ARPU BB H 2 09:10:30.00 9.239 00:04:09 Yes
29 Hayloft - CA 9379-AU19-GSF BB 0 4 09:10:30.70 9.238 00:04:11 Yes
29 C.J. Watkins - CA 1826-AU19-PASO DC H 1 09:10:31.20 9.238 00:04:11 Yes
31 John Hedderson - CA 7629-AU19-FSC BB C 1 09:10:41.80 9.229 00:04:22 Yes
31 Marshall Jespersen - CA 3205-AU19-ARC BB C 1 09:10:42.60 9.229 00:04:22 Yes
33 Steve Sterchi - CA 0984-AU19-SR BB C 2 09:10:45.30 9.226 00:04:25 Yes
33 Barbara Coston - CA 1848-AU19-ARPU BB H 1 09:10:45.90 9.226 00:04:25 Yes
35 Fred Belus - CA 0249-AU19-BPRC BC H 1 09:10:55.60 9.218 00:04:35 Yes
35 Bob Bostwick - CA 0923-AU19-COCO BC C 1 09:10:56.10 9.218 00:04:35 Yes
37 Dr. Kelly - CA 3328-AU19-ARC BC H 1 09:10:59.80 9.215 00:04:39 Yes
38 Frank Meder - CA 19041-AU19-TBW BC H 1 09:11:13.90 9.203 00:04:54 Yes
39 Armando Lopez - CA 1246-AU19-CHP BC C 1 09:11:16.10 9.202 00:04:55 Yes
40 Hayloft - CA 9282-AU19-GSF BB H 5 09:11:18.50 9.200 00:04:58 Yes
41 Robert Lin - CA 19064-AU19-SVS BCWF C 2 09:11:19.50 9.199 00:04:59 Yes
42 Gold Star Loft - CA 1649-AU19-STON BB C 1 09:11:23.60 9.196 00:05:03 Yes
43 Sal Perez - CA 0086-AU19-SFR DC H 1 09:11:24.80 9.195 00:05:04 Yes
43 Hung-Wen Hung - CA 19081-AU19-SVS BB C 1 09:11:25.10 9.195 00:05:04 Yes
45 Mike Gonigan - CA 80309-AU19-MAN BB H 1 09:11:25.50 9.194 00:05:05 Yes
46 Fernando Gonzalez - CA 1974-AU19-MTZ BC H 1 09:11:26.70 9.193 00:05:06 Yes
47 Larry Ault - CA 9205-AU19-SWI BC C 1 09:11:31.50 9.189 00:05:11 Yes
48 Richard Norgrove - CA 90876-AU19-SOC RC C 1 09:11:36.30 9.186 00:05:15 Yes
49 Dino D'ercole - CA 0501-AU19-SFR BC H 1 09:11:37.80 9.184 00:05:18 Yes
50 Gold Star Loft - CA 1671-AU19-STON BB H 2 09:11:44.20 9.179 00:05:24 Yes
51 Roger Revenaugh - CA 1392-AU19-MTZ BB H 1 09:11:45.70 9.178 00:05:25 Yes
52 Dino D'ercole - CA 0507-AU19-SFR BB C 2 09:11:48.70 9.176 00:05:28 Yes
53 Dino D'ercole - CA 0506-AU19-SFR BB H 3 09:11:49.20 9.175 00:05:29 Yes
54 Mike Gonigan - CA 80305-AU19-MAN BB H 2 09:11:54.00 9.171 00:05:34 Yes
55 Hayloft - CA 9355-AU19-GSF BC H 6 09:11:56.10 9.170 00:05:35 Yes
56 Robert Lin - CA 19119-AU19-SVS BB H 3 09:11:57.40 9.169 00:05:37 Yes
57 Jay Page - CA 7813-AU19-FSC BC H 1 09:11:59.40 9.167 00:05:39 Yes
57 Breeder Unassigned - OR 0349-AU19-BPRC GRZ 0 1 09:12:00.20 9.167 00:05:39 Yes
59 Hung-Wen Hung - CA 19080-AU19-SVS BB H 2 09:12:07.40 9.161 00:05:47 Yes
60 Leonard Lee - CA 9329-AU19-BIEC DC C 1 09:12:08.80 9.160 00:05:48 Yes
61 Roger Revenaugh - CA 1393-AU19-MTZ BB H 2 09:12:16.50 9.154 00:05:55 Yes
62 Gomez Loft - CA 1098-AU19-CHP BBTK H 1 09:12:19.70 9.151 00:05:59 Yes
63 Steve Pereira - CA 2429-AU19-GSF MLY H 1 09:12:34.70 9.139 00:06:14 Yes
63 Sal Perez - CA 14062-AU19-AA BC H 2 09:12:35.40 9.139 00:06:14 Yes
65 Robert Justman - CA 90045-AU19-SOC BBPD H 1 09:12:36.40 9.138 00:06:16 Yes
66 Gudino Loft - CA 3078-AU19-GSF BCPD C 1 09:12:40.70 9.134 00:06:21 Yes
66 Robert Lin - CA 19078-AU19-SVS DC H 4 09:12:41.30 9.134 00:06:21 Yes
68 Jim Cain - CA 6516-AU19-FSC BB H 1 09:12:44.10 9.132 00:06:23 Yes
69 De Vriend Lofts - CA 5773-AU19-FSC BC H 1 09:12:45.10 9.131 00:06:24 Yes
70 Hayloft - CA 9286-AU19-GSF BC C 7 09:12:57.40 9.121 00:06:37 Yes
71 Darryl Coston - CA 1840-AU19-ARPU BB H 1 09:12:58.50 9.120 00:06:38 Yes
72 Trina Dewitt - CA 1827-AU19-PASO DC C 1 09:13:04.10 9.116 00:06:44 Yes
73 Gomez Loft - CA 1092-AU19-CHP BCSP H 2 09:13:16.90 9.106 00:06:56 Yes
74 Steve Paine - CA 0444-AU19-HOP BC 1 1 09:13:27.20 9.098 00:07:06 Yes
75 Roger Revenaugh - CA 1332-AU19-MTZ BC H 3 09:14:41.20 9.040 00:08:21 Yes
76 John Karnofel - CA 0008-AU19-KFL BC H 1 09:14:44.20 9.038 00:08:23 Yes
77 Jim Cain - CA 6529-AU19-FSC BC H 2 09:14:46.90 9.036 00:08:26 Yes
78 Marshall Jespersen - CA 3207-AU19-ARC BB C 2 09:14:48.20 9.035 00:08:27 Yes
79 John Partridge - CA 1941-AU19-SR BB H 3 09:14:50.20 9.033 00:08:30 Yes
80 Duane Gragg - CA 0997-AU19-KEY BC H 1 09:15:28.50 9.004 00:09:08 Yes
81 Lopez / Saenz - CA 1305-AU19-TCH BB H 1 09:15:59.00 8.980 00:09:39 Yes
82 Bob Bostwick - CA 0933-AU19-COCO BBWF H 2 09:16:56.90 8.936 00:10:37 Yes
83 Pat Siino - CA 9126-AU19-COOK BB H 2 09:17:00.40 8.934 00:10:39 Yes
84 Old West Enders - CA 1429-AU19-SFR BLK C 1 09:17:23.60 8.916 00:11:03 Yes
85 Richard Norgrove - CA 90866-AU19-SOC BC H 2 09:17:30.50 8.911 00:11:10 Yes
86 Phil Pellizzari - CA 1643-AU19-WSJ BB C 1 09:18:36.10 8.862 00:12:16 Yes
87 Padilla - CA 0729-AU19-SFPC BB C 2 09:22:47.10 8.679 00:16:27 Yes
88 Barbara Coston - CA 1836-AU19-ARPU BB C 2 09:22:51.50 8.676 00:16:31 Yes
89 Bob Bostwick - CA 0925-AU19-COCO BB H 3 09:23:09.20 8.663 00:16:49 Yes
90 Sandy Wessel - CA 3026-AU19-ARC BCWF C 1 09:24:00.30 8.627 00:17:40 Yes
91 C.J. Watkins - CA 1836-AU19-PASO BB C 2 09:25:53.60 8.548 00:19:33 Yes
92 Armando De La O - CA 9119-AU19-COOK BB C 1 09:26:04.30 8.541 00:19:43 Yes
93 Mike Belus - CA 0718-AU19-BPRC BC 1 1 09:28:00.10 8.461 00:21:40 Yes
94 Chelaru Family Loft - CA 0103-AU19-BPRC SIL H 1 09:28:11.00 8.454 00:21:51 Yes
95 Marco Parra - CA 1005-AU19-TULE BB 0 1 09:28:15.90 8.451 00:21:55 Yes
96 Breeder Unassigned - OR 39675-AU19-AA BB 1 2 09:28:58.80 8.422 00:22:38 Yes
97 Joe Jauhal - CA 0106-AU19-WSJ BCWF H 2 09:29:02.60 8.419 00:22:43 Yes
98 Silicon Valley Syndicates - CA 19065-AU19-SVS BBWF C 3 09:29:16.90 8.410 00:22:56 Yes
99 Padilla - CA 0728-AU19-SFPC BB H 3 09:29:17.80 8.409 00:22:57 Yes
100 John Hedderson - CA 7623-AU19-FSC BB H 2 09:29:21.50 8.407 00:23:00 Yes

There are 266 bird records

Note: These Race Results are unofficial and subject to change until verified by the Race Committee and declared final.